星链-3882 (STARLINK-3882 )

导读

STARLINK-3882是美国SpaceX公司星链星座的V1.5批次卫星,于2022年5月6日发射。作为低轨通信卫星,它采用平板设计,搭载霍尔推进器,配备激光星间链路,可实现卫星间直接通信,助力构建全球高速互联网。卫星设计使用寿命约5-7年,寿命末期会主动离轨坠入大气层烧毁,减少空间碎片影响,目前已在轨道稳定运行,为偏远地区提供宽带服务。

Basic Information
目录编号:
52475
目录名称:
STARLINK-3882
国际标识:
2022-049AA
轨道中心:
EARTH
卫星名称:
星链-3882
卫星全名:
星链-3882 (STARLINK-3882 )
卫星状态:
在轨 (已飞行1582 天)
发射日期:
2022-05-06 UTC
国别 :
美国 (US)
星等 :
--
Orbit Information
数据来源 国际轨道数据
星历时间: 2026-09-04T01:03:29+0800
11小时前
查看轨道信息
半长轴: 6840.882km
偏心率: 0.0000943
轨道倾角: 53.162°
近地点辐角 66.289°
升交点赤经 331.859°
平近点角 293.821°
近地点: 462.099km
远地点: 463.391km
周期: 93.849分钟
每日圈数: 15.343862
Detailed Information
固有亮度:
5
最大亮度:
2.5
卫星平台:
Starlink v1.5
覆盖范围:
全球
运营商:
太空探索技术公司
运营商所在国:
美国
制造商(研发单位):
太空探索技术公司
制造商所在国:
美国
使用方式:
暂无
Satellite Introduction
星链(Starlink)计划是由太空探索技术公司(SpaceX)提出的一个巨型低轨卫星互联网星座项目,计划在2019年至2024年间在太空搭建由约1.2万颗卫星组成的“星链”网络,其中1584颗将部署在地球上空550千米处的近地轨道,并从2020年开始工作。该卫星仍在工作。
2D Orbit Map
3D Orbit Map
Orbit Altitude Analysis Chart
Orbit Inclination Analysis Chart
Orbit Comprehensive Analysis Chart
View Comprehensive Chart
Conjunction Data List
Event ID Objects TCA Miss Dist (km) Collision Risk Probability Collision Risk Index (CRI) Action
CDM_260904-214105-247506-983421
2026-09-04T
21:41:58+0000
0.352 km
远距离
2.929887E-4 高风险 0.84
CDM_260904-095805-247506-983422
2026-09-04T
09:58:32+0000
0.875 km
远距离
2.696343E-5 中风险 0.64
CDM_260904-082405-247506-983421
2026-09-04T
08:24:44+0000
1.655 km
极远距离
3.184638E-6 低风险 0.45
CDM_260904-200805-247506-983421
2026-09-04T
20:08:11+0000
2.779 km
极远距离
1.019376E-6 低风险 0.35
CDM_260903-010505-247505-342622
2026-09-03T
01:05:17+0000
2.694 km
极远距离
7.6259E-7 极低风险 0.33
CDM_260905-013205-247505-300121
2026-09-05T
01:32:07+0000
2.825 km
极远距离
6.24273E-7 极低风险 0.31